Date String (YYYY-MM-DD hh:mm:ss) UTC,Instrument flags,Ambient pressure (hPa),Sample flow (lpm),Bypass flow (lpm),Sample temperature (°C),Ambient temperature (°C),ASC tube jacket temperature (°C),LED temperature (°C),Box temperature (°C),Sample RH (%),Span deviation,Mass concentration (μg/m³),Mass concentration (μg/m³),Mass concentration (μg/m³)
DateTimeUTC,F1_M11,P_M11,Q1_M11,Q2_M11,T1_M11,T2_M11,T3_M11,T4_M11,T5_M11,U1_M11,ZSPAN_M11,X0_M11,X2_M11,X1_M11
2022-02-08 20:00:00,,0829.8,5.01,0.00,25.1,24.4,00.0,33.9,27.0,06.6,0000.0,0004.74,0001.68,0001.08
2022-02-08 20:01:00,,0829.8,4.99,0.00,25.2,24.4,00.0,33.9,27.1,07.3,0000.0,0004.46,0001.68,0001.08
2022-02-08 20:02:00,,0829.8,5.01,0.00,25.2,24.5,00.0,34.0,27.1,09.4,0000.0,0005.67,0001.80,0001.13
2022-02-08 20:03:00,,0829.8,4.99,0.00,25.2,24.5,00.0,34.0,27.1,10.2,0000.0,0006.38,0001.97,0001.22
2022-02-08 20:04:00,,0829.7,5.00,0.00,25.2,24.5,00.0,34.0,27.1,10.5,0000.0,0006.72,0002.15,0001.32
2022-02-08 20:05:00,,0829.8,5.00,0.00,25.2,24.5,00.0,34.0,27.1,10.5,0000.0,0007.36,0002.29,0001.41
2022-02-08 20:06:00,,0829.8,4.99,0.00,25.2,24.5,00.0,34.0,27.2,09.9,0000.0,0007.56,0002.39,0001.49
2022-02-08 20:07:00,,0829.8,5.01,0.00,25.3,24.5,00.0,34.1,27.2,09.4,0000.0,0007.69,0002.49,0001.56
2022-02-08 20:08:00,,0829.8,5.00,0.00,25.3,24.6,00.0,34.1,27.2,09.4,0000.0,0007.70,0002.55,0001.63
2022-02-08 20:09:00,,0829.7,5.00,0.00,25.3,24.6,00.0,34.1,27.2,08.8,0000.0,0007.74,0002.60,0001.67
2022-02-08 20:10:00,,0829.7,5.00,0.00,25.3,24.6,00.0,34.1,27.2,09.2,0000.0,0007.95,0002.73,0001.72
2022-02-08 20:11:00,,0829.7,5.01,0.00,25.3,24.6,00.0,34.1,27.2,09.5,0000.0,0007.86,0002.84,0001.77
2022-02-08 20:12:00,,0829.7,4.98,0.00,25.3,24.6,00.0,34.2,27.3,09.6,0000.0,0007.96,0002.91,0001.83
2022-02-08 20:13:00,,0829.7,5.01,0.00,25.3,24.6,00.0,34.2,27.2,09.2,0000.0,0007.18,0002.87,0001.84
2022-02-08 20:14:00,,0829.7,4.98,0.00,25.3,24.6,00.0,34.2,27.2,09.7,0000.0,0006.95,0002.84,0001.80
2022-02-08 20:15:00,,0829.7,5.01,0.00,25.4,24.6,00.0,34.2,27.3,09.5,0000.0,0007.66,0002.72,0001.77
2022-02-08 20:16:00,,0829.7,4.99,0.00,25.4,24.7,00.0,34.2,27.3,10.1,0000.0,0008.11,0002.69,0001.77
2022-02-08 20:17:00,,0829.7,5.03,0.00,25.4,24.7,00.0,34.2,27.3,10.2,0000.0,0008.12,0002.71,0001.77
2022-02-08 20:18:00,,0829.7,4.99,0.00,25.4,24.7,00.0,34.2,27.3,10.1,0000.0,0008.21,0002.79,0001.79
2022-02-08 20:19:00,,0829.7,5.01,0.00,25.4,24.7,00.0,34.3,27.3,10.3,0000.0,0008.90,0002.91,0001.83
2022-02-08 20:20:00,,0829.7,5.00,0.00,25.4,24.7,00.0,34.3,27.3,10.4,0000.0,0010.88,0003.03,0001.90
2022-02-08 20:21:00,,0829.7,5.00,0.00,25.4,24.7,00.0,34.3,27.3,10.7,0000.0,0011.47,0003.06,0001.96
2022-02-08 20:22:00,,0829.6,4.99,0.00,25.4,24.7,00.0,34.3,27.2,11.0,0000.0,0012.00,0003.13,0002.02
2022-02-08 20:23:00,,0829.5,4.99,0.00,25.4,24.7,00.0,34.3,27.2,11.3,0000.0,0012.18,0003.18,0002.07
2022-02-08 20:24:00,,0829.6,5.00,0.00,25.4,24.7,00.0,34.3,27.3,10.7,0000.0,0011.90,0003.20,0002.12
2022-02-08 20:25:00,,0829.6,5.00,0.00,25.4,24.7,00.0,34.3,27.3,10.7,0000.0,0011.92,0003.19,0002.16
2022-02-08 20:26:00,,0829.6,5.01,0.00,25.4,24.7,00.0,34.3,27.3,10.2,0000.0,0011.70,0003.25,0002.21
2022-02-08 20:27:00,,0829.5,5.01,0.00,25.4,24.7,00.0,34.3,27.3,10.3,0000.0,0010.97,0003.31,0002.23
2022-02-08 20:28:00,,0829.5,4.99,0.00,25.4,24.7,00.0,34.3,27.3,10.4,0000.0,0011.38,0003.31,0002.25
2022-02-08 20:29:00,,0829.5,5.01,0.00,25.4,24.7,00.0,34.3,27.3,10.5,0000.0,0012.49,0003.32,0002.26
2022-02-08 20:30:00,,0829.5,4.99,0.00,25.4,24.7,00.0,34.3,27.2,10.7,0000.0,0013.05,0003.32,0002.27
2022-02-08 20:31:00,,0829.5,5.02,0.00,25.4,24.7,00.0,34.3,27.2,10.2,0000.0,0011.63,0003.29,0002.26
2022-02-08 20:32:00,,0829.5,4.98,0.00,25.4,24.7,00.0,34.3,27.2,09.8,0000.0,0011.79,0003.31,0002.25
2022-02-08 20:33:00,,0829.5,5.02,0.00,25.4,24.7,00.0,34.3,27.3,09.7,0000.0,0011.54,0003.28,0002.25
2022-02-08 20:34:00,,0829.5,5.01,0.00,25.4,24.7,00.0,34.3,27.2,09.9,0000.0,0011.46,0003.31,0002.25
2022-02-08 20:35:00,,0829.5,4.99,0.00,25.4,24.7,00.0,34.3,27.2,10.3,0000.0,0011.75,0003.38,0002.26
2022-02-08 20:36:00,,0829.5,5.01,0.00,25.4,24.7,00.0,34.3,27.2,10.2,0000.0,0011.84,0003.40,0002.26
2022-02-08 20:37:00,,0829.5,4.99,0.00,25.4,24.7,00.0,34.3,27.2,10.3,0000.0,0011.88,0003.39,0002.25
2022-02-08 20:38:00,,0829.5,5.00,0.00,25.4,24.7,00.0,34.3,27.2,10.1,0000.0,0012.25,0003.38,0002.25
2022-02-08 20:39:00,,0829.4,5.01,0.00,25.4,24.7,00.0,34.3,27.2,10.0,0000.0,0012.02,0003.38,0002.27
2022-02-08 20:40:00,,0829.3,4.98,0.00,25.4,24.7,00.0,34.3,27.2,10.1,0000.0,0010.85,0003.36,0002.28
2022-02-08 20:41:00,,0829.4,5.02,0.00,25.4,24.6,00.0,34.3,27.2,10.6,0000.0,0010.03,0003.34,0002.29
2022-02-08 20:42:00,,0829.3,4.99,0.00,25.4,24.6,00.0,34.3,27.2,10.2,0000.0,0009.94,0003.33,0002.29
2022-02-08 20:43:00,,0829.4,4.99,0.00,25.4,24.6,00.0,34.3,27.2,10.2,0000.0,0009.42,0003.33,0002.30
2022-02-08 20:44:00,,0829.4,5.01,0.00,25.3,24.6,00.0,34.3,27.2,10.3,0000.0,0009.51,0003.37,0002.30
2022-02-08 20:45:00,,0829.4,5.00,0.00,25.3,24.6,00.0,34.3,27.2,10.2,0000.0,0009.63,0003.34,0002.30
2022-02-08 20:46:00,,0829.3,5.02,0.00,25.3,24.6,00.0,34.3,27.2,10.1,0000.0,0009.45,0003.28,0002.29
2022-02-08 20:47:00,,0829.2,4.98,0.00,25.3,24.7,00.0,34.3,27.2,09.9,0000.0,0009.36,0003.29,0002.29
2022-02-08 20:48:00,,0829.4,5.00,0.00,25.3,24.6,00.0,34.3,27.2,10.2,0000.0,0010.11,0003.30,0002.30
2022-02-08 20:49:00,,0829.2,5.01,0.00,25.3,24.7,00.0,34.3,27.2,10.2,0000.0,0009.82,0003.27,0002.31
2022-02-08 20:50:00,,0829.2,4.99,0.00,25.3,24.7,00.0,34.3,27.2,10.1,0000.0,0009.32,0003.26,0002.29
2022-02-08 20:51:00,,0829.3,5.02,0.00,25.3,24.7,00.0,34.3,27.2,10.0,0000.0,0009.20,0003.26,0002.28
2022-02-08 20:52:00,,0829.3,5.00,0.00,25.3,24.7,00.0,34.3,27.2,09.9,0000.0,0009.21,0003.27,0002.27
2022-02-08 20:53:00,,0829.3,5.00,0.00,25.3,24.6,00.0,34.3,27.2,09.8,0000.0,0009.18,0003.27,0002.25
2022-02-08 20:54:00,,0829.2,4.99,0.00,25.3,24.6,00.0,34.3,27.1,10.2,0000.0,0008.96,0003.23,0002.24
2022-02-08 20:55:00,,0829.3,5.00,0.00,25.3,24.6,00.0,34.3,27.1,09.8,0000.0,0009.17,0003.20,0002.23
2022-02-08 20:56:00,,0829.2,5.02,0.00,25.3,24.7,00.0,34.3,27.1,09.7,0000.0,0009.40,0003.17,0002.21
2022-02-08 20:57:00,,0829.2,4.99,0.00,25.3,24.7,00.0,34.3,27.1,09.8,0000.0,0009.35,0003.14,0002.19
2022-02-08 20:58:00,,0829.2,5.01,0.00,25.3,24.7,00.0,34.3,27.2,09.5,0000.0,0009.48,0003.12,0002.16
2022-02-08 20:59:00,,0829.3,4.99,0.00,25.3,24.7,00.0,34.3,27.2,09.7,0000.0,0008.67,0003.07,0002.14
